CMP104 MMUN-MPTO

Flight info

Callsign CMP104
Flight time N/A
Altitude 35000
Route TAKUX2A TAKUX UM782 OMIRO UN420 PELRA DCT SPP DCT MORLI OSUPA2
Aircraft B738/M-SDE2E3FGHIRWXY/LB1

Departure

Time 2026-05-06 14:09
Airport Cancún International Airport (MMUN)

Arrival

Time N/A
Airport Tocumen International Airport (MPTO)
Time Latitude Longitude Altitude Speed Heading
2026-05-06 13:39 21.03674 -86.87109 32 ft 0 kts 33°
2026-05-06 13:58 21.03671 -86.87112 31 ft 2 kts 38°
2026-05-06 13:58 21.03660 -86.87123 31 ft 2 kts 45°
2026-05-06 13:59 21.03649 -86.87134 31 ft 2 kts 42°
2026-05-06 13:59 21.03638 -86.87145 30 ft 2 kts 43°
2026-05-06 13:59 21.03627 -86.87156 30 ft 2 kts 43°
2026-05-06 13:59 21.03619 -86.87164 30 ft 0 kts 43°
2026-05-06 14:00 21.03612 -86.87170 30 ft 1 kts 359°
2026-05-06 14:00 21.03604 -86.87166 30 ft 0 kts 309°
2026-05-06 14:00 21.03601 -86.87161 30 ft 1 kts 300°
2026-05-06 14:00 21.03600 -86.87159 30 ft 0 kts 303°
2026-05-06 14:03 21.03602 -86.87163 30 ft 1 kts 303°
2026-05-06 14:03 21.03612 -86.87180 30 ft 3 kts 302°
2026-05-06 14:04 21.03627 -86.87203 29 ft 4 kts 303°
2026-05-06 14:04 21.03644 -86.87231 29 ft 4 kts 305°
2026-05-06 14:04 21.03667 -86.87266 28 ft 8 kts 304°
2026-05-06 14:04 21.03714 -86.87341 28 ft 15 kts 304°
2026-05-06 14:05 21.03788 -86.87460 25 ft 18 kts 304°
2026-05-06 14:05 21.03827 -86.87569 24 ft 15 kts 256°
2026-05-06 14:05 21.03836 -86.87674 24 ft 14 kts 309°
2026-05-06 14:05 21.03895 -86.87769 24 ft 16 kts 302°
2026-05-06 14:06 21.03962 -86.87875 24 ft 18 kts 308°
2026-05-06 14:06 21.04034 -86.87992 24 ft 19 kts 303°
2026-05-06 14:06 21.04114 -86.88120 26 ft 21 kts 305°
2026-05-06 14:06 21.04197 -86.88253 29 ft 21 kts 302°
2026-05-06 14:07 21.04283 -86.88390 31 ft 22 kts 303°
2026-05-06 14:07 21.04373 -86.88534 34 ft 23 kts 306°
2026-05-06 14:07 21.04461 -86.88675 35 ft 21 kts 304°
2026-05-06 14:07 21.04542 -86.88806 35 ft 20 kts 303°
2026-05-06 14:08 21.04620 -86.88930 35 ft 18 kts 306°
2026-05-06 14:08 21.04604 -86.89033 35 ft 16 kts 213°
2026-05-06 14:08 21.04507 -86.89060 33 ft 12 kts 139°
2026-05-06 14:08 21.04494 -86.89040 33 ft 5 kts 121°
2026-05-06 14:09 21.04324 -86.88769 33 ft 80 kts 124°
2026-05-06 14:09 21.03919 -86.88118 25 ft 117 kts 126°
2026-05-06 14:09 21.03361 -86.87230 45 ft 168 kts 125°
2026-05-06 14:09 21.02687 -86.86181 683 ft 171 kts 126°
2026-05-06 14:10 21.02015 -86.85243 1649 ft 157 kts 127°
2026-05-06 14:10 21.01379 -86.84238 2100 ft 171 kts 120°
2026-05-06 14:10 21.00800 -86.83090 2566 ft 183 kts 117°
2026-05-06 14:10 21.00196 -86.81821 2977 ft 201 kts 117°
2026-05-06 14:11 20.99533 -86.80434 3414 ft 219 kts 117°
2026-05-06 14:11 20.98809 -86.78928 3912 ft 236 kts 117°
2026-05-06 14:11 20.98041 -86.77335 4400 ft 252 kts 117°
2026-05-06 14:11 20.97226 -86.75644 4887 ft 261 kts 117°
2026-05-06 14:12 20.96392 -86.73910 4976 ft 261 kts 117°
2026-05-06 14:12 20.95505 -86.72208 4982 ft 262 kts 122°
2026-05-06 14:12 20.94458 -86.70553 5608 ft 270 kts 125°
2026-05-06 14:12 20.93370 -86.68947 6503 ft 268 kts 125°
2026-05-06 14:13 20.92282 -86.67344 7199 ft 273 kts 124°
2026-05-06 14:13 20.91164 -86.65678 7885 ft 278 kts 124°
2026-05-06 14:13 20.90015 -86.63947 8353 ft 284 kts 124°
2026-05-06 14:13 20.88867 -86.62215 8457 ft 285 kts 124°
2026-05-06 14:14 20.87722 -86.60485 8466 ft 283 kts 123°
2026-05-06 14:14 20.86586 -86.58769 8464 ft 283 kts 123°
2026-05-06 14:14 20.85448 -86.57051 8462 ft 283 kts 123°
2026-05-06 14:14 20.84310 -86.55333 8464 ft 284 kts 123°
2026-05-06 14:15 20.83166 -86.53605 8464 ft 282 kts 123°
2026-05-06 14:15 20.82036 -86.51900 8465 ft 282 kts 123°
2026-05-06 14:15 20.80894 -86.50176 8471 ft 283 kts 123°
2026-05-06 14:15 20.79752 -86.48452 8464 ft 281 kts 123°
2026-05-06 14:16 20.78627 -86.46755 8466 ft 281 kts 123°
2026-05-06 14:16 20.77498 -86.45052 8466 ft 282 kts 124°
2026-05-06 14:16 20.76355 -86.43329 8467 ft 282 kts 124°
2026-05-06 14:16 20.75218 -86.41615 8467 ft 283 kts 124°
2026-05-06 14:17 20.74081 -86.39902 8516 ft 289 kts 123°
2026-05-06 14:17 20.72902 -86.38128 9233 ft 290 kts 123°
2026-05-06 14:17 20.71735 -86.36372 9958 ft 292 kts 123°
2026-05-06 14:17 20.70542 -86.34573 10491 ft 302 kts 123°
2026-05-06 14:18 20.69260 -86.32741 10836 ft 318 kts 128°
2026-05-06 14:18 20.67562 -86.31145 11135 ft 338 kts 145°
2026-05-06 14:18 20.65425 -86.29929 11440 ft 355 kts 152°
2026-05-06 14:18 20.63132 -86.28830 11799 ft 367 kts 154°
2026-05-06 14:19 20.60742 -86.27717 12405 ft 371 kts 154°
2026-05-06 14:19 20.58332 -86.26566 13022 ft 375 kts 153°
2026-05-06 14:19 20.55954 -86.25394 13607 ft 379 kts 152°
2026-05-06 14:19 20.53533 -86.24176 14220 ft 383 kts 152°
2026-05-06 14:20 20.51105 -86.22939 14786 ft 388 kts 151°
2026-05-06 14:20 20.48661 -86.21687 14974 ft 391 kts 151°
2026-05-06 14:20 20.46183 -86.20417 15004 ft 389 kts 151°
2026-05-06 14:20 20.43735 -86.19161 15015 ft 389 kts 151°
2026-05-06 14:21 20.41293 -86.17910 15017 ft 389 kts 151°
2026-05-06 14:21 20.38851 -86.16660 15014 ft 388 kts 151°
2026-05-06 14:21 20.36398 -86.15404 15011 ft 388 kts 151°
2026-05-06 14:21 20.33959 -86.14156 15015 ft 388 kts 151°
2026-05-06 14:22 20.31525 -86.12912 15014 ft 387 kts 151°
2026-05-06 14:22 20.29064 -86.11655 15012 ft 388 kts 151°
2026-05-06 14:22 20.26647 -86.10420 15013 ft 388 kts 151°
2026-05-06 14:22 20.24239 -86.09145 15012 ft 387 kts 149°
2026-05-06 14:23 20.21912 -86.07677 15011 ft 385 kts 143°
2026-05-06 14:23 20.19752 -86.05978 15322 ft 391 kts 138°
2026-05-06 14:23 20.17672 -86.04106 16081 ft 389 kts 135°
2026-05-06 14:23 20.15650 -86.02177 16661 ft 393 kts 134°
2026-05-06 14:24 20.13630 -86.00204 17235 ft 396 kts 134°
2026-05-06 14:24 20.11596 -85.98212 17841 ft 399 kts 134°
2026-05-06 14:24 20.09539 -85.96210 18381 ft 403 kts 134°
2026-05-06 14:24 20.07463 -85.94205 18912 ft 407 kts 134°
2026-05-06 14:25 20.05350 -85.92175 19435 ft 411 kts 134°
2026-05-06 14:25 20.03221 -85.90137 19935 ft 415 kts 134°
2026-05-06 14:25 20.01073 -85.88091 20456 ft 418 kts 135°
2026-05-06 14:25 19.98878 -85.86015 20948 ft 422 kts 135°
2026-05-06 14:26 19.96688 -85.83952 21424 ft 425 kts 135°
2026-05-06 14:26 19.94445 -85.81840 21879 ft 429 kts 135°
2026-05-06 14:26 19.92214 -85.79742 22339 ft 433 kts 135°
2026-05-06 14:26 19.89933 -85.77595 22815 ft 436 kts 135°
2026-05-06 14:27 19.87673 -85.75468 23234 ft 439 kts 135°
2026-05-06 14:27 19.85391 -85.73321 23671 ft 442 kts 135°
2026-05-06 14:27 19.83058 -85.71126 24117 ft 445 kts 135°
2026-05-06 14:27 19.80728 -85.68934 24557 ft 448 kts 135°
2026-05-06 14:28 19.78388 -85.66733 24998 ft 451 kts 135°
2026-05-06 14:28 19.76058 -85.64541 25431 ft 453 kts 136°
2026-05-06 14:28 19.73691 -85.62317 25874 ft 455 kts 136°
2026-05-06 14:28 19.71305 -85.60075 26287 ft 458 kts 136°
2026-05-06 14:29 19.68929 -85.57844 26694 ft 460 kts 136°
2026-05-06 14:29 19.66518 -85.55579 27079 ft 463 kts 136°
2026-05-06 14:29 19.64091 -85.53302 27482 ft 465 kts 136°
2026-05-06 14:29 19.61685 -85.51045 27913 ft 467 kts 136°
2026-05-06 14:30 19.59245 -85.48756 28296 ft 469 kts 136°
2026-05-06 14:30 19.56772 -85.46438 28646 ft 472 kts 136°
2026-05-06 14:30 19.54320 -85.44140 29012 ft 474 kts 136°
2026-05-06 14:30 19.51857 -85.41833 29361 ft 477 kts 136°
2026-05-06 14:31 19.49345 -85.39482 29839 ft 476 kts 136°
2026-05-06 14:31 19.46893 -85.37188 30458 ft 472 kts 136°
2026-05-06 14:31 19.44422 -85.34878 30918 ft 471 kts 137°
2026-05-06 14:31 19.41972 -85.32587 31426 ft 469 kts 137°
2026-05-06 14:32 19.39514 -85.30290 31899 ft 468 kts 137°
2026-05-06 14:32 19.37081 -85.28016 32357 ft 466 kts 137°
2026-05-06 14:32 19.34651 -85.25746 32771 ft 466 kts 137°
2026-05-06 14:32 19.32238 -85.23493 33244 ft 465 kts 137°
2026-05-06 14:33 19.29792 -85.21210 33715 ft 464 kts 137°
2026-05-06 14:33 19.27392 -85.18971 34198 ft 462 kts 137°
2026-05-06 14:33 19.25004 -85.16745 34619 ft 461 kts 137°
2026-05-06 14:33 19.22586 -85.14492 34999 ft 461 kts 137°
2026-05-06 14:34 19.17746 -85.09982 35011 ft 461 kts 137°
2026-05-06 14:34 19.12958 -85.05525 35011 ft 459 kts 137°
2026-05-06 14:35 19.08143 -85.01047 35010 ft 461 kts 137°
2026-05-06 14:35 19.03335 -84.96577 35009 ft 461 kts 137°
2026-05-06 14:36 18.98512 -84.92100 35009 ft 462 kts 137°
2026-05-06 14:36 18.93679 -84.87616 35008 ft 461 kts 137°
2026-05-06 14:37 18.88889 -84.83176 35011 ft 459 kts 137°
2026-05-06 14:37 18.84070 -84.78712 35011 ft 460 kts 137°
2026-05-06 14:38 18.79241 -84.74242 35011 ft 461 kts 136°
2026-05-06 14:38 18.74451 -84.69810 35011 ft 460 kts 136°
2026-05-06 14:39 18.69628 -84.65353 35011 ft 460 kts 137°
2026-05-06 14:39 18.64796 -84.60891 35011 ft 461 kts 137°
2026-05-06 14:40 18.59972 -84.56440 35011 ft 461 kts 136°
2026-05-06 14:40 18.55137 -84.52020 35015 ft 461 kts 137°
2026-05-06 14:41 18.49901 -84.48145 35015 ft 464 kts 149°
2026-05-06 14:41 18.44102 -84.45131 35013 ft 465 kts 154°
2026-05-06 14:42 18.38156 -84.42348 35011 ft 465 kts 154°
2026-05-06 14:42 18.32237 -84.39584 35012 ft 465 kts 154°
2026-05-06 14:43 18.26340 -84.36787 35014 ft 465 kts 154°
2026-05-06 14:43 18.20481 -84.33975 35011 ft 464 kts 154°
2026-05-06 14:44 18.14577 -84.31126 35009 ft 464 kts 153°
2026-05-06 14:45 18.05784 -84.26875 35009 ft 465 kts 153°
2026-05-06 14:45 17.99894 -84.24028 35008 ft 464 kts 153°
2026-05-06 14:46 17.93996 -84.21178 35009 ft 464 kts 153°
2026-05-06 14:46 17.88120 -84.18342 35007 ft 464 kts 153°
2026-05-06 14:47 17.82232 -84.15499 35003 ft 464 kts 153°
2026-05-06 14:47 17.76356 -84.12662 35003 ft 465 kts 153°
2026-05-06 14:48 17.70501 -84.09840 35003 ft 464 kts 153°
2026-05-06 14:48 17.64605 -84.07001 34999 ft 464 kts 153°
2026-05-06 14:49 17.58740 -84.04181 35000 ft 463 kts 153°
2026-05-06 14:49 17.52876 -84.01361 34998 ft 463 kts 153°
2026-05-06 14:50 17.47039 -83.98557 34996 ft 464 kts 153°
2026-05-06 14:50 17.41156 -83.95733 34996 ft 463 kts 153°
2026-05-06 14:51 17.35273 -83.92911 34996 ft 464 kts 153°
2026-05-06 14:51 17.29386 -83.90089 34994 ft 463 kts 153°
2026-05-06 14:52 17.23523 -83.87283 34991 ft 463 kts 153°
2026-05-06 14:52 17.17667 -83.84480 34992 ft 463 kts 153°
2026-05-06 14:53 17.11786 -83.81667 34990 ft 463 kts 153°
2026-05-06 14:53 17.05956 -83.78881 34991 ft 462 kts 153°
2026-05-06 14:54 17.00104 -83.76086 34989 ft 462 kts 153°
2026-05-06 14:54 16.94232 -83.73283 34987 ft 461 kts 153°
2026-05-06 14:55 16.88408 -83.70506 34988 ft 461 kts 153°
2026-05-06 14:55 16.82533 -83.67706 34991 ft 462 kts 153°
2026-05-06 14:56 16.76676 -83.64919 34995 ft 462 kts 153°
2026-05-06 14:56 16.70843 -83.62141 35002 ft 460 kts 153°
2026-05-06 14:57 16.64985 -83.59355 35008 ft 460 kts 153°
2026-05-06 14:57 16.59161 -83.56587 35008 ft 460 kts 153°
2026-05-06 14:58 16.53346 -83.53825 35008 ft 460 kts 153°
2026-05-06 14:58 16.47489 -83.51045 35008 ft 460 kts 152°
2026-05-06 14:59 16.41666 -83.48283 35008 ft 460 kts 153°
2026-05-06 14:59 16.35845 -83.45524 35008 ft 459 kts 153°
2026-05-06 15:00 16.30014 -83.42762 35008 ft 459 kts 153°
2026-05-06 15:00 16.24231 -83.40024 35008 ft 458 kts 153°
2026-05-06 15:01 16.18411 -83.37270 35008 ft 459 kts 153°
2026-05-06 15:01 16.12580 -83.34513 35008 ft 458 kts 153°
2026-05-06 15:02 16.06762 -83.31764 35008 ft 459 kts 153°
2026-05-06 15:02 16.00973 -83.29009 35008 ft 458 kts 153°
2026-05-06 15:03 15.95175 -83.26214 35007 ft 458 kts 152°
2026-05-06 15:03 15.89383 -83.23415 35006 ft 458 kts 153°
2026-05-06 15:04 15.83625 -83.20638 35008 ft 457 kts 152°
2026-05-06 15:04 15.77832 -83.17848 35007 ft 458 kts 152°
2026-05-06 15:05 15.72055 -83.15070 35007 ft 457 kts 153°
2026-05-06 15:05 15.66243 -83.12279 35007 ft 458 kts 153°
2026-05-06 15:06 15.60477 -83.09513 35007 ft 458 kts 153°
2026-05-06 15:06 15.54654 -83.06721 35007 ft 458 kts 153°
2026-05-06 15:07 15.48900 -83.03963 35007 ft 458 kts 153°
2026-05-06 15:07 15.43094 -83.01181 35008 ft 457 kts 153°
2026-05-06 15:08 15.37308 -82.98410 35003 ft 458 kts 153°
2026-05-06 15:08 15.31504 -82.95631 34995 ft 458 kts 152°
2026-05-06 15:09 15.25717 -82.92863 34987 ft 458 kts 153°
2026-05-06 15:09 15.19913 -82.90090 34987 ft 458 kts 153°
2026-05-06 15:10 15.14142 -82.87336 34987 ft 458 kts 153°
2026-05-06 15:10 15.08319 -82.84558 34987 ft 458 kts 153°
2026-05-06 15:11 15.02511 -82.81789 34987 ft 458 kts 153°
2026-05-06 15:11 14.96734 -82.79034 34985 ft 458 kts 152°
2026-05-06 15:12 14.90951 -82.76279 34986 ft 457 kts 153°
2026-05-06 15:12 14.85180 -82.73531 34987 ft 458 kts 153°
2026-05-06 15:13 14.79378 -82.70770 34987 ft 459 kts 153°
2026-05-06 15:13 14.73580 -82.68012 34986 ft 458 kts 153°
2026-05-06 15:14 14.67762 -82.65247 34986 ft 459 kts 153°
2026-05-06 15:14 14.61947 -82.62485 34987 ft 458 kts 153°
2026-05-06 15:15 14.56153 -82.59738 34986 ft 459 kts 153°
2026-05-06 15:15 14.50333 -82.56976 34989 ft 460 kts 153°
2026-05-06 15:16 14.44524 -82.54218 34986 ft 460 kts 153°
2026-05-06 15:16 14.38678 -82.51445 34988 ft 459 kts 153°
2026-05-06 15:17 14.32859 -82.48689 34987 ft 460 kts 153°
2026-05-06 15:17 14.27051 -82.45941 34989 ft 459 kts 153°
2026-05-06 15:18 14.21219 -82.43220 34986 ft 460 kts 154°
2026-05-06 15:18 14.15309 -82.40564 34984 ft 461 kts 154°
2026-05-06 15:19 14.09442 -82.37951 34986 ft 461 kts 154°
2026-05-06 15:19 14.03543 -82.35319 34987 ft 461 kts 154°
2026-05-06 15:20 13.97634 -82.32677 34985 ft 461 kts 154°
2026-05-06 15:20 13.91733 -82.30035 34986 ft 461 kts 154°
2026-05-06 15:21 13.85847 -82.27397 34983 ft 461 kts 154°
2026-05-06 15:21 13.79945 -82.24753 34983 ft 462 kts 154°
2026-05-06 15:22 13.74051 -82.22114 34984 ft 462 kts 154°
2026-05-06 15:22 13.68151 -82.19474 34981 ft 462 kts 154°
2026-05-06 15:23 13.62222 -82.16821 34977 ft 462 kts 155°
2026-05-06 15:23 13.56326 -82.14187 34979 ft 462 kts 155°
2026-05-06 15:24 13.50414 -82.11546 34974 ft 463 kts 155°
2026-05-06 15:24 13.44515 -82.08910 34969 ft 463 kts 155°
2026-05-06 15:25 13.38610 -82.06275 34968 ft 463 kts 155°
2026-05-06 15:25 13.32671 -82.03626 34966 ft 462 kts 155°
2026-05-06 15:26 13.26747 -82.00987 34967 ft 463 kts 155°
2026-05-06 15:26 13.20838 -81.98354 34966 ft 463 kts 155°
2026-05-06 15:27 13.14934 -81.95725 34966 ft 464 kts 155°
2026-05-06 15:27 13.09002 -81.93085 34965 ft 463 kts 155°
2026-05-06 15:28 13.03074 -81.90447 34965 ft 463 kts 155°
2026-05-06 15:28 12.97140 -81.87809 34966 ft 463 kts 155°
2026-05-06 15:29 12.91212 -81.85173 34965 ft 462 kts 155°
2026-05-06 15:29 12.85278 -81.82535 34966 ft 463 kts 155°
2026-05-06 15:30 12.79350 -81.79902 34965 ft 463 kts 155°
2026-05-06 15:30 12.73430 -81.77276 34963 ft 463 kts 155°
2026-05-06 15:31 12.67463 -81.74631 34969 ft 464 kts 155°
2026-05-06 15:31 12.61536 -81.72005 34969 ft 462 kts 155°
2026-05-06 15:32 12.52835 -81.67677 34969 ft 462 kts 149°
2026-05-06 15:32 12.47281 -81.64402 34969 ft 462 kts 148°
2026-05-06 15:33 12.41696 -81.61076 34968 ft 462 kts 148°
2026-05-06 15:33 12.36086 -81.57780 34971 ft 463 kts 148°
2026-05-06 15:34 12.30471 -81.54516 34967 ft 462 kts 148°
2026-05-06 15:34 12.24826 -81.51253 34966 ft 463 kts 149°
2026-05-06 15:35 12.19187 -81.48001 34965 ft 462 kts 149°
2026-05-06 15:35 12.13504 -81.44731 34967 ft 462 kts 149°
2026-05-06 15:36 12.10714 -81.43127 35362 ft 457 kts 149°
2026-05-06 15:36 12.07984 -81.41557 35922 ft 451 kts 149°
2026-05-06 15:36 12.02430 -81.38361 35412 ft 466 kts 149°
2026-05-06 15:37 11.99608 -81.36736 35039 ft 462 kts 149°
2026-05-06 15:37 11.96828 -81.35137 34975 ft 458 kts 149°
2026-05-06 15:37 11.91232 -81.31918 34966 ft 464 kts 149°
2026-05-06 15:38 11.85586 -81.28669 34966 ft 463 kts 149°
2026-05-06 15:38 11.79951 -81.25429 34966 ft 463 kts 149°
2026-05-06 15:39 11.74328 -81.22199 34963 ft 463 kts 149°
2026-05-06 15:39 11.68714 -81.18976 34963 ft 465 kts 149°
2026-05-06 15:40 11.63066 -81.15735 34961 ft 463 kts 149°
2026-05-06 15:40 11.57423 -81.12501 34954 ft 463 kts 149°
2026-05-06 15:41 11.51751 -81.09249 34956 ft 463 kts 149°
2026-05-06 15:41 11.46106 -81.06015 34955 ft 463 kts 149°
2026-05-06 15:42 11.40432 -81.02765 34954 ft 464 kts 149°
2026-05-06 15:42 11.34811 -80.99547 34948 ft 465 kts 149°
2026-05-06 15:43 11.29146 -80.96305 34946 ft 462 kts 149°
2026-05-06 15:43 11.23517 -80.93087 34946 ft 462 kts 149°
2026-05-06 15:44 11.17908 -80.89882 34942 ft 463 kts 149°
2026-05-06 15:44 11.12304 -80.86680 34943 ft 461 kts 149°
2026-05-06 15:45 11.06681 -80.83476 35035 ft 460 kts 150°
2026-05-06 15:45 11.01023 -80.80276 34945 ft 462 kts 149°
2026-05-06 15:46 10.95396 -80.77056 34941 ft 462 kts 149°
2026-05-06 15:46 10.89794 -80.73848 34941 ft 462 kts 149°
2026-05-06 15:47 10.84172 -80.70634 34938 ft 462 kts 149°
2026-05-06 15:47 10.78548 -80.67426 34941 ft 462 kts 149°
2026-05-06 15:48 10.72935 -80.64222 34939 ft 463 kts 149°
2026-05-06 15:48 10.67735 -80.60327 34940 ft 462 kts 134°
2026-05-06 15:49 10.63573 -80.55396 34942 ft 461 kts 126°
2026-05-06 15:49 10.59755 -80.50166 34942 ft 460 kts 124°
2026-05-06 15:50 10.55993 -80.44902 34942 ft 460 kts 124°
2026-05-06 15:50 10.52221 -80.39678 34942 ft 460 kts 125°
2026-05-06 15:51 10.48389 -80.34425 34940 ft 461 kts 126°
2026-05-06 15:51 10.44554 -80.29200 34938 ft 462 kts 126°
2026-05-06 15:52 10.40736 -80.24012 34942 ft 461 kts 126°
2026-05-06 15:52 10.36880 -80.18778 34945 ft 461 kts 126°
2026-05-06 15:53 10.33037 -80.13563 34946 ft 461 kts 126°